Lapse_Rate
0.6 0.6 0.5 0.2 -0.1 -0.3 -0.4 -0.7 -0.8 -1.1 -1.4 -1.7 -2.0 -2.3 -2.6 -3.0 -3.3 -3.5 -3.7 -4.1 -4.5 -5.2 -5.3 -4.7 -4.4 -4.4 0.4 7.0 8.1 7.5 0.6 0.8 5.5 7.5 8.9 8.5 7.9 7.6 6.5 6.9 7.2 6.6 6.8 7.3 7.5 7.6 7.5
0.6 0.4 0.3 0.1 -0.2 -0.4 -0.6 -0.7 -0.9 -1.2 -1.5 -1.9 -2.2 -2.5 -2.9 -3.4 -3.7 -4.0 -4.3 -4.7 -5.6 -5.9 -5.8 -4.7 -4.4 -4.7 4.5 7.0 8.0 6.9 6.3 6.0 9.1 9.1 9.0 8.9 8.2 8.3 7.4 7.0 6.7 7.2 7.0 7.1 7.3 7.2 7.3
0.5 0.5 0.3 0.1 -0.2 -0.5 -0.7 -0.9 -1.1 -1.3 -1.7 -2.0 -2.4 -2.7 -3.0 -3.7 -3.9 -4.4 -5.0 -5.8 -6.3 -6.2 -5.7 -4.7 -4.4 0.1 7.1 8.0 7.8 7.6 8.2 9.5 9.5 9.4 8.7 9.0 9.0 8.1 7.9 6.7 7.8 7.4 6.5 6.5 6.8 7.1 6.8
0.6 0.5 0.4 0.1 -0.3 -0.6 -0.9 -1.0 -1.3 -1.5 -2.0 -2.4 -2.6 -2.9 -3.3 -3.8 -4.2 -4.8 -5.9 -6.5 -6.7 -5.8 -5.2 -4.6 -4.1 2.9 7.9 7.6 7.7 7.9 8.7 8.9 8.4 9.0 9.4 9.2 9.1 8.5 7.8 8.0 7.2 6.5 6.5 6.5 6.5 6.8 7.0
0.9 0.6 0.4 0.1 -0.2 -0.6 -0.9 -1.2 -1.5 -1.9 -2.3 -2.5 -2.9 -3.2 -3.5 -4.2 -4.7 -5.5 -6.7 -6.9 -5.6 -4.6 -4.0 -3.5 2.6 6.9 7.6 3.8 8.0 9.7 9.7 9.0 9.2 9.3 9.0 7.9 8.9 7.9 7.7 6.5 6.5 6.5 6.5 6.4 6.6 6.9 6.5
0.9 0.7 0.6 0.4 -0.2 -0.5 -0.9 -1.2 -1.8 -2.2 -2.3 -2.7 -3.0 -3.4 -3.8 -4.4 -5.1 -6.0 -6.9 -6.4 -5.1 -3.7 -0.7 2.1 3.7 7.1 8.2 8.1 9.1 9.3 9.7 9.5 8.8 8.8 8.3 8.1 7.8 6.5 6.6 6.5 6.5 6.5 6.4 6.5 6.5 6.5 6.5
0.9 0.8 0.7 0.3 -0.1 -0.5 -0.9 -1.4 -1.8 -2.2 -2.3 -2.8 -3.2 -3.7 -4.0 -4.6 -5.5 -6.5 -3.4 3.5 7.2 7.7 6.2 7.9 7.9 7.8 8.3 9.2 8.8 9.0 9.5 9.0 8.8 8.1 6.5 7.3 6.5 6.5 6.5 6.5 6.5 6.5 6.5 6.5 6.5 6.5 6.5
1.0 0.8 0.5 0.1 -0.2 -0.7 -1.0 -1.3 -1.8 -2.0 -2.3 -2.8 -3.4 -4.0 -4.4 -5.0 -6.2 -6.6 -0.6 8.7 7.6 7.1 7.2 8.4 8.3 8.2 8.7 8.9 7.8 8.6 9.4 7.9 7.4 6.5 6.8 6.5 6.5 6.4 6.5 6.5 6.5 6.6 6.6 6.5 6.5 6.5 6.5
1.3 0.9 0.4 -0.0 -0.3 -0.7 -1.2 -1.5 -1.8 -2.1 -2.5 -3.0 -3.6 -4.3 -4.8 -5.5 -6.0 -2.4 5.5 8.7 6.5 7.1 7.3 7.6 8.3 8.1 8.3 8.6 7.6 7.9 8.8 7.8 6.9 6.5 6.5 6.5 6.5 6.7 6.5 6.5 6.6 6.5 6.5 6.5 6.5 6.5 6.5
1.2 0.7 -0.0 -0.2 -0.3 -0.6 -1.0 -1.2 -1.6 -2.1 -2.7 -3.2 -3.6 -4.4 -5.1 -6.1 -1.5 5.0 8.5 6.1 6.0 5.9 6.5 6.5 7.0 8.0 8.4 8.4 7.1 8.9 8.9 7.9 6.9 6.5 6.5 6.5 6.7 6.5 6.5 6.5 6.5 6.5 6.5 6.5 6.5 6.5 6.5
1.0 0.2 -0.1 0.1 -0.2 -0.5 -0.8 -1.1 -1.6 -2.1 -2.7 -3.1 -3.6 -4.4 -5.7 -6.6 2.1 7.4 6.6 5.8 6.4 8.1 6.5 6.5 6.9 9.0 8.6 7.4 7.6 7.7 8.9 8.1 6.5 6.5 6.5 6.5 6.5 6.5 6.5 6.5 6.5 6.5 6.5 6.5 6.5 6.5 6.5
0.6 0.1 0.3 0.3 -0.4 -0.8 -1.1 -1.2 -1.5 -1.8 -2.4 -3.1 -3.9 -5.1 -6.1 -2.0 1.0 5.3 4.4 6.0 7.4 6.5 6.5 6.5 6.9 6.6 6.7 7.3 7.2 7.9 7.9 8.4 7.9 6.5 6.5 6.5 7.3 6.6 6.5 6.5 6.5 6.5 6.5 6.5 6.5 6.5 6.6
0.6 0.7 0.6 0.1 -0.4 -0.9 -1.0 -1.1 -1.3 -1.8 -2.5 -3.6 -4.6 -5.8 -6.2 -0.9 8.1 3.5 5.0 8.3 6.5 6.5 6.5 6.5 6.5 6.5 6.5 6.5 6.5 6.6 6.5 6.5 6.6 6.5 6.5 6.5 6.5 6.6 6.9 6.5 6.5 6.5 6.5 6.5 6.5 6.5 6.5
0.7 0.5 0.4 -0.0 -0.3 -0.7 -0.9 -1.0 -1.5 -2.0 -3.1 -4.3 -5.4 -7.0 -4.3 0.1 2.2 3.3 6.9 6.8 6.5 6.5 6.5 6.5 6.5 6.5 6.5 6.5 6.5 6.5 6.6 6.5 6.5 6.5 6.5 6.5 6.5 6.5 6.5 6.5 6.6 6.5 6.5 6.5 6.5 6.5 6.5
1.1 0.9 0.6 0.2 -0.2 -0.4 -0.7 -0.9 -1.6 -2.3 -3.4 -5.2 -6.4 2.8 3.8 4.6 2.1 3.5 8.2 6.5 6.5 6.5 6.5 6.5 6.5 6.5 6.5 6.5 6.5 6.5 6.5 6.5 6.5 6.4 6.4 6.5 6.5 6.5 6.5 6.5 6.5 6.5 6.5 6.5 6.5 6.5 6.5
1.5 1.3 0.9 0.4 0.1 -0.4 -0.5 -0.7 -1.6 -2.6 -3.9 -5.2 1.9 7.5 8.4 3.9 3.3 7.3 6.8 6.5 6.5 6.7 6.7 6.5 6.5 6.5 6.5 6.5 6.5 6.5 6.5 6.5 6.5 6.6 7.0 6.5 6.5 6.5 6.5 6.7 6.6 6.5 6.5 6.5 6.4 6.5 6.4
1.5 1.4 1.0 0.7 0.3 -0.2 -0.3 -0.7 -1.6 -2.9 -4.4 -5.5 3.7 8.2 6.0 4.7 5.8 8.3 6.5 6.5 6.6 7.3 7.2 6.5 6.6 6.5 6.5 6.5 6.6 6.5 6.6 6.5 6.4 6.5 6.9 6.5 6.5 6.5 6.5 6.5 6.5 6.5 6.5 6.6 6.4 6.5 6.5
1.7 1.5 1.3 0.9 0.6 0.1 -0.2 -0.6 -1.6 -3.0 -4.8 -3.4 8.1 6.6 7.8 6.4 7.2 7.1 6.5 6.5 2.9 6.7 7.5 6.6 6.7 6.5 6.6 6.6 6.5 6.5 6.5 6.5 7.2 7.0 6.6 6.4 6.5 6.5 6.5 6.5 6.5 6.5 6.5 6.6 6.5 6.5 6.5
2.3 1.8 1.6 1.2 0.8 0.3 -0.1 -0.4 -1.5 -2.5 -4.2 2.2 8.1 8.0 8.0 7.9 6.5 6.4 6.8 6.5 7.0 6.5 6.5 6.5 6.5 6.5 6.5 6.5 6.5 6.5 6.5 7.0 7.2 6.6 6.5 6.5 6.6 6.5 6.5 6.5 6.5 6.6 6.5 6.6 6.5 6.5 6.5
2.7 2.2 1.9 1.5 1.1 0.5 -0.0 -0.4 -1.2 -2.3 -3.9 0.3 8.4 6.5 8.2 8.6 8.1 6.6 6.5 6.5 6.5 7.4 6.8 6.9 6.5 6.7 6.5 6.5 6.5 6.5 6.6 6.7 7.2 7.1 3.4 6.4 6.5 6.5 6.5 6.5 6.5 6.5 6.5 6.5 6.5 6.5 6.5
2.9 2.6 2.1 1.8 1.5 0.9 0.3 -0.2 -0.7 -1.8 -3.5 1.2 8.3 7.0 7.6 6.4 6.8 6.6 6.6 6.5 6.5 6.6 7.0 7.2 6.6 6.5 6.5 6.5 6.5 6.5 6.5 6.5 6.9 4.1 6.7 6.5 6.5 6.4 6.5 6.5 6.4 6.5 6.4 6.4 6.5 6.5 6.6
2.9 2.6 2.2 2.0 1.7 1.4 0.6 -0.0 -0.6 -1.4 -2.9 7.8 8.1 7.6 8.0 7.2 7.3 6.6 6.5 6.5 6.5 6.5 6.6 6.5 6.6 6.5 6.5 6.5 6.6 6.5 6.6 6.5 6.5 6.7 6.5 6.6 6.5 6.5 6.5 6.5 6.5 6.5 6.5 6.5 6.5 6.5 6.5
3.4 2.8 2.4 2.0 1.8 1.6 0.9 0.4 -0.2 -1.2 -0.2 9.0 9.1 8.4 8.2 4.2 6.8 6.5 6.5 6.5 6.5 6.7 7.0 7.1 6.7 6.5 6.5 6.6 7.3 7.6 7.5 7.3 6.9 6.5 6.5 6.5 6.5 6.5 6.5 6.5 6.5 6.6 6.5 6.5 6.5 6.5 6.5
3.4 2.8 2.3 2.0 1.9 1.8 1.5 0.8 0.4 -0.3 -0.8 5.6 7.9 8.6 7.8 6.5 6.5 6.4 6.6 6.8 6.5 6.7 6.5 7.1 7.3 6.6 7.5 8.4 8.1 7.9 7.5 7.3 7.2 6.8 7.2 6.5 6.4 6.5 6.5 6.6 6.5 6.5 6.5 6.5 6.5 6.5 6.6
3.1 2.6 2.3 2.0 1.8 1.8 1.7 1.3 0.7 0.3 -0.7 5.6 6.7 8.7 8.1 6.5 6.9 6.8 6.8 6.8 7.2 7.0 6.8 7.0 7.7 8.0 8.4 7.6 6.5 6.5 6.6 6.4 6.5 6.6 6.5 6.7 6.5 6.5 6.5 6.5 6.6 6.5 6.5 6.5 6.5 6.5 6.5
2.9 2.6 2.3 2.1 2.0 1.9 1.7 1.7 1.0 0.4 -0.4 4.5 6.9 5.4 8.8 7.5 6.6 7.6 6.9 7.2 6.5 6.5 6.4 7.3 8.1 8.5 8.3 6.8 6.6 6.5 6.5 6.5 6.5 6.5 6.7 6.5 6.5 6.5 6.5 6.5 6.5 6.5 6.6 7.3 6.9 6.5 7.0
2.9 2.9 2.8 2.5 2.5 1.9 1.8 1.8 1.4 0.7 -0.1 2.3 6.9 5.1 8.4 7.7 8.1 8.0 6.9 6.9 7.7 7.1 6.6 7.1 7.4 7.4 8.1 6.5 6.5 6.5 6.5 6.5 6.5 6.5 6.5 6.5 6.5 6.5 6.5 6.5 6.5 6.5 7.0 7.6 6.5 6.5 7.3
2.6 2.6 2.8 2.6 2.4 2.1 1.8 1.6 1.4 0.8 0.1 1.8 7.3 4.6 6.7 8.2 8.3 8.5 8.5 7.7 7.6 7.5 6.5 7.3 7.0 7.2 6.7 6.5 6.5 6.5 6.5 6.5 6.6 6.5 6.5 6.5 6.5 6.5 6.5 6.5 6.5 7.3 6.9 6.5 6.9 7.6 7.6
2.4 2.3 2.5 2.6 2.4 2.2 1.9 1.6 1.4 0.9 0.4 -0.0 8.9 5.2 4.1 7.7 8.4 6.8 7.8 7.6 8.4 8.7 8.0 7.8 7.3 7.1 7.3 6.4 6.5 6.5 6.5 6.5 6.5 6.5 6.5 6.5 6.5 6.5 6.5 6.5 6.9 7.8 7.3 7.9 8.0 7.6 7.8
Wind_Speed
14 13 13 14 15 15 16 17 17 18 19 19 19 19 19 20 20 20 19 19 18 15 12 11 11 10 7 6 3 7 2 12 10 7 6 2 3 5 5 5 2 3 8 8 9 10 5
14 14 14 14 15 15 16 17 18 19 19 19 20 20 20 20 21 21 21 20 18 13 10 9 9 9 6 5 3 4 9 13 8 8 4 3 4 6 4 4 5 9 9 7 8 6 1
14 14 14 14 15 16 17 17 18 19 20 20 21 21 21 20 21 22 22 20 16 12 8 7 7 4 6 5 2 4 8 6 6 5 5 2 1 6 6 4 6 7 5 6 11 6 4
14 15 15 15 16 16 17 17 19 21 21 21 21 22 22 22 22 23 22 21 16 10 6 6 6 5 1 4 3 5 5 5 5 3 2 1 2 5 5 7 5 6 2 4 7 8 5
14 15 16 16 17 17 17 18 18 22 22 22 22 22 23 23 23 23 22 17 8 2 3 5 6 5 7 7 6 7 7 6 9 6 3 2 4 4 7 9 8 3 6 6 6 5 4
15 15 16 16 17 18 18 19 19 21 23 23 23 23 23 24 23 21 22 7 1 6 5 4 4 5 6 5 6 7 6 7 9 10 6 7 6 10 9 7 4 7 7 6 6 5 7
16 16 16 17 18 18 19 20 20 22 24 24 24 24 24 24 24 22 12 4 5 5 6 6 3 3 5 5 4 8 9 9 9 13 13 8 9 11 4 5 5 5 7 7 3 5 6
16 17 18 18 19 19 20 20 21 23 23 23 24 24 25 25 25 19 5 4 5 4 4 4 5 6 4 1 8 11 8 11 11 14 13 8 12 3 1 2 6 6 7 4 4 6 1
16 17 18 19 20 20 21 21 23 24 24 23 24 24 25 26 27 5 4 1 2 6 6 5 3 4 6 8 9 13 13 4 11 13 14 16 6 5 4 6 8 10 8 6 5 3 4
17 18 19 20 21 21 22 22 25 24 24 23 23 23 24 32 7 4 2 3 7 4 5 7 8 6 7 5 8 8 7 4 6 12 6 10 7 7 9 10 7 12 4 3 3 7 3
17 18 19 20 20 22 22 23 24 24 25 25 23 22 18 12 9 4 4 5 2 4 6 7 7 5 5 6 11 10 5 6 6 9 9 5 8 11 12 10 3 10 4 4 5 8 7
17 18 19 21 22 22 23 24 25 25 26 26 24 19 17 5 4 5 4 4 4 6 3 8 8 12 12 8 7 8 10 5 2 5 8 6 2 6 10 4 9 4 9 11 7 7 6
16 18 19 21 22 23 24 25 25 27 28 27 25 21 8 5 2 3 4 4 6 6 4 9 10 13 15 10 7 12 12 12 7 9 10 10 12 7 8 12 10 10 13 6 7 7 6
17 19 21 22 23 24 25 26 26 28 29 30 29 25 9 6 3 5 5 6 6 2 3 4 7 13 12 11 8 9 11 11 7 7 4 9 9 3 7 9 3 10 9 4 4 3 10
18 19 21 22 23 24 25 26 28 29 29 29 32 4 3 3 7 5 7 8 1 3 2 6 10 13 10 13 5 10 11 10 7 13 4 7 7 6 3 3 6 7 6 8 1 3 6
18 19 21 22 24 25 26 27 28 31 30 29 4 3 3 1 8 6 7 6 1 1 2 5 10 12 13 16 10 9 10 5 6 8 12 2 6 2 6 3 5 6 3 6 5 3 6
19 20 21 22 23 25 26 27 29 32 33 21 4 4 5 6 4 6 8 4 3 2 3 4 5 7 8 12 14 12 12 7 2 3 9 7 7 10 7 2 4 5 8 1 5 5 7
19 21 22 23 24 25 26 28 29 31 36 8 4 3 5 3 6 3 8 4 1 4 3 4 4 2 9 11 10 10 9 2 1 4 6 8 5 8 3 5 2 2 2 8 7 3 1
19 20 21 22 24 25 26 27 29 29 25 6 2 2 4 4 5 7 4 8 4 4 1 3 4 3 3 7 5 5 6 3 2 6 5 9 6 7 8 10 6 6 2 3 6 5 11
17 19 20 22 23 25 26 27 29 29 25 4 4 4 4 4 2 5 4 7 7 3 4 1 1 3 8 7 2 8 8 4 4 2 3 3 3 6 5 4 3 6 6 3 8 9 7
16 18 19 20 22 24 25 27 29 30 23 3 2 2 4 4 8 6 4 1 7 7 4 4 4 3 4 5 6 6 6 9 5 6 3 5 4 2 3 1 2 3 4 4 8 6 8
15 16 18 19 21 22 24 26 29 34 33 2 4 4 1 1 2 6 5 7 8 5 3 7 5 5 3 5 5 6 5 2 2 4 3 3 2 6 5 3 4 5 3 3 3 4 3
13 14 16 17 19 21 22 24 26 31 26 4 3 2 4 3 4 7 5 2 5 5 4 5 6 9 11 9 7 6 4 3 4 2 3 3 6 7 8 5 3 8 11 7 2 4 4
12 13 14 15 17 19 20 21 22 23 20 4 4 4 4 1 4 1 1 1 4 1 4 6 4 3 4 2 2 3 2 1 3 2 4 4 7 4 3 5 12 5 3 2 6 3 5
11 11 12 14 15 17 18 19 20 21 21 4 4 4 3 2 1 4 3 4 7 7 8 8 8 5 1 2 3 4 6 5 6 3 8 6 8 5 7 10 3 6 5 6 8 7 8
10 11 11 12 14 16 17 18 18 20 23 6 3 4 4 5 4 3 2 1 3 4 6 6 5 2 2 2 3 6 9 6 4 5 4 8 7 9 6 11 10 8 8 3 2 9 8
10 12 11 12 12 14 15 17 17 18 20 8 2 5 4 4 4 5 3 4 2 1 2 3 2 3 3 3 6 6 7 1 6 6 5 8 9 12 9 8 4 7 9 8 6 5 9
10 11 11 12 12 12 13 15 16 17 17 9 2 5 4 3 2 2 4 3 0 1 3 4 4 4 3 5 3 3 6 4 5 1 3 7 6 6 5 6 10 12 10 5 6 7 3
10 10 11 12 12 11 12 14 15 16 16 16 3 1 5 4 5 3 7 7 5 5 4 1 3 1 3 2 2 1 5 3 5 5 4 4 3 1 4 4 4 15 2 6 4 4 3
Wind_Direction
12 13 11 8 4 1 359 355 352 348 345 342 339 335 332 332 330 329 326 324 321 317 309 298 298 305 279 216 79 30 78 157 186 203 232 271 349 348 13 352 306 287 344 340 330 299 274
9 7 6 5 4 1 358 355 351 346 342 339 334 330 330 331 330 329 327 324 319 311 299 290 291 297 258 206 25 55 123 156 182 203 188 237 29 354 302 324 327 332 314 332 358 4 75
7 5 3 1 1 358 356 353 349 343 339 336 332 330 330 331 329 327 326 322 315 303 280 273 275 273 254 53 34 120 162 181 180 230 195 127 20 301 340 307 345 305 316 122 31 23 34
6 2 0 359 357 358 354 350 348 341 336 332 331 331 330 330 329 326 325 317 303 291 250 239 247 251 343 129 121 195 193 169 188 206 269 141 279 293 306 318 231 304 209 63 47 12 27
5 2 358 357 356 354 352 347 343 340 335 331 330 330 328 327 327 326 325 320 302 176 174 186 221 258 133 134 209 179 205 196 175 187 198 256 246 301 266 284 266 171 7 25 93 30 28
2 1 359 356 354 351 348 345 342 336 332 329 329 329 327 326 327 328 322 285 16 181 198 220 261 236 184 160 133 156 181 178 173 169 176 214 234 262 241 284 346 14 339 346 3 38 38
1 358 358 355 351 349 346 343 340 331 330 328 328 328 327 326 326 325 306 211 213 181 210 311 38 325 129 114 175 184 172 180 180 195 208 204 252 235 317 340 319 312 311 307 348 79 77
359 357 354 352 349 348 345 341 337 327 327 327 328 328 328 327 325 319 263 280 45 2 288 206 254 265 228 266 164 166 183 200 200 208 213 205 232 256 342 270 274 276 286 287 292 94 262
356 354 352 349 346 345 343 339 329 326 325 327 329 329 331 327 321 276 304 21 42 327 255 145 182 203 174 203 172 165 197 196 207 205 208 227 104 99 195 277 248 243 288 347 336 337 152
354 352 350 346 345 343 340 333 327 326 325 326 329 330 333 326 294 342 198 122 303 255 251 131 175 148 170 226 160 143 208 224 198 218 201 234 247 230 249 261 268 277 70 307 288 295 16
352 350 347 342 334 334 332 330 328 326 324 325 326 329 331 329 319 244 67 319 281 224 210 144 145 115 159 220 122 178 167 209 197 178 216 147 199 213 236 255 238 296 335 309 302 285 259
351 350 342 335 335 334 331 328 325 325 322 323 324 326 326 212 229 285 294 299 222 229 145 150 144 178 181 193 162 134 187 227 5 189 219 272 156 260 255 271 240 305 266 246 247 241 175
349 341 337 337 334 333 330 328 327 325 323 323 323 313 289 290 5 341 289 210 228 260 144 154 176 176 191 175 157 177 183 190 198 194 203 198 225 231 241 251 232 240 244 246 197 191 56
338 334 334 333 333 333 331 329 328 326 325 326 321 314 183 244 277 297 226 217 246 63 172 136 167 173 189 165 164 175 178 195 201 272 177 192 165 225 162 244 302 208 307 300 200 220 115
337 336 335 334 334 333 332 331 330 329 329 330 313 181 198 177 219 238 223 218 237 163 94 166 166 172 186 178 190 188 207 206 208 205 254 180 111 110 103 207 276 152 240 14 252 178 234
339 337 337 336 336 335 334 334 333 333 333 333 298 226 79 24 176 221 226 255 197 323 323 218 207 201 183 187 198 206 178 176 199 222 244 102 161 116 124 199 88 303 16 239 228 196 245
339 339 338 337 337 336 337 338 337 337 335 334 239 209 64 132 214 216 224 212 259 214 245 236 213 187 198 177 204 192 174 125 175 147 231 231 268 139 197 337 1 181 206 210 313 308 315
338 339 338 338 338 338 339 340 340 341 339 282 287 196 143 251 206 230 227 217 33 255 192 232 266 253 178 165 189 202 192 42 28 220 195 212 247 239 58 123 16 293 6 269 315 137 191
338 339 337 338 340 341 341 342 341 345 354 315 301 87 165 266 230 208 189 237 258 259 211 221 187 268 203 164 150 180 157 91 177 192 187 184 228 178 184 186 191 230 147 291 288 290 284
334 337 338 339 341 342 343 343 344 346 348 283 273 180 150 219 296 286 215 217 219 205 241 247 149 178 162 155 154 159 145 101 128 157 308 209 250 310 5 40 350 189 206 245 276 287 325
329 333 337 340 342 343 345 345 346 348 354 279 283 66 358 186 209 234 244 253 215 184 213 208 163 231 165 143 142 138 142 140 137 141 205 244 236 201 33 76 234 223 199 241 256 322 287
323 329 337 340 342 344 347 349 350 350 342 273 328 323 209 248 220 230 168 206 224 151 252 167 204 144 162 99 14 146 148 231 101 156 195 215 178 176 154 179 199 216 208 236 243 259 284
318 324 333 337 341 344 348 351 355 359 346 356 12 254 285 136 207 224 175 166 177 169 84 67 114 124 99 73 58 60 52 85 89 280 170 236 164 213 247 170 222 241 215 228 236 256 290
315 322 330 336 342 344 349 351 356 4 6 315 18 290 280 127 239 2 174 214 169 112 130 83 55 104 76 107 149 154 117 159 208 216 277 222 213 231 274 185 245 65 109 251 253 221 206
317 322 327 335 341 343 347 350 354 358 359 298 352 323 320 287 350 135 94 118 124 128 94 79 56 48 140 193 241 229 205 221 201 270 231 244 221 211 233 229 209 185 195 197 210 221 211
316 319 323 331 337 340 344 349 351 355 358 311 356 325 293 302 66 337 335 357 150 126 139 104 84 53 249 277 241 243 249 263 209 188 236 218 232 247 198 255 254 73 130 121 141 245 161
314 315 321 324 327 334 340 346 350 353 355 330 345 357 281 293 63 328 17 359 322 266 43 137 88 177 251 241 247 249 244 311 235 232 179 187 215 221 209 246 129 130 141 167 232 80 141
307 310 314 316 317 326 333 339 345 351 353 343 336 11 334 302 309 330 9 355 301 305 292 89 211 191 217 244 263 181 257 176 250 19 215 198 210 205 234 248 243 150 152 224 95 125 148
297 304 309 311 309 314 325 332 339 346 349 339 293 14 319 253 346 314 302 294 310 9 322 144 358 29 11 255 215 265 216 200 267 214 175 227 324 342 314 42 119 166 8 134 148 156 172